UAL1799 KLAS-KSFO

Flight info

Callsign UAL1799
Flight time 1h 6m
Altitude 36000
Route JOHKR5 KENNO RUSME DYAMD5
Aircraft B738/M-SDE2E3FGHIRWXY/LB1

Departure

Time 2026-05-04 21:46
Airport Harry Reid International Airport (KLAS)

Arrival

Time 2026-05-04 22:53
Airport San Francisco International Airport (KSFO)
Time Latitude Longitude Altitude Speed Heading
2026-05-04 21:18 36.08287 -115.14035 2092 ft 0 kts 117°
2026-05-04 21:36 36.08289 -115.14040 2092 ft 4 kts 117°
2026-05-04 21:36 36.08301 -115.14069 2092 ft 4 kts 117°
2026-05-04 21:36 36.08311 -115.14093 2092 ft 4 kts 127°
2026-05-04 21:36 36.08327 -115.14107 2091 ft 4 kts 202°
2026-05-04 21:37 36.08346 -115.14088 2091 ft 4 kts 225°
2026-05-04 21:37 36.08349 -115.14084 2091 ft 1 kts 225°
2026-05-04 21:39 36.08345 -115.14089 2091 ft 2 kts 225°
2026-05-04 21:39 36.08328 -115.14110 2091 ft 5 kts 224°
2026-05-04 21:40 36.08302 -115.14145 2093 ft 6 kts 232°
2026-05-04 21:40 36.08262 -115.14159 2094 ft 7 kts 183°
2026-05-04 21:40 36.08204 -115.14159 2094 ft 9 kts 180°
2026-05-04 21:40 36.08133 -115.14160 2094 ft 11 kts 180°
2026-05-04 21:41 36.08051 -115.14160 2094 ft 12 kts 180°
2026-05-04 21:41 36.07963 -115.14144 2093 ft 13 kts 148°
2026-05-04 21:41 36.07895 -115.14057 2093 ft 15 kts 132°
2026-05-04 21:41 36.07827 -115.13954 2092 ft 17 kts 102°
2026-05-04 21:42 36.07827 -115.13803 2092 ft 19 kts 90°
2026-05-04 21:42 36.07827 -115.13634 2091 ft 20 kts 90°
2026-05-04 21:42 36.07827 -115.13464 2090 ft 20 kts 90°
2026-05-04 21:42 36.07826 -115.13298 2087 ft 19 kts 91°
2026-05-04 21:43 36.07829 -115.13138 2082 ft 18 kts 89°
2026-05-04 21:43 36.07827 -115.12976 2074 ft 19 kts 93°
2026-05-04 21:43 36.07828 -115.12806 2068 ft 20 kts 91°
2026-05-04 21:43 36.07828 -115.12634 2062 ft 20 kts 89°
2026-05-04 21:44 36.07830 -115.12468 2057 ft 19 kts 91°
2026-05-04 21:44 36.07827 -115.12306 2053 ft 18 kts 90°
2026-05-04 21:44 36.07768 -115.12174 2049 ft 18 kts 127°
2026-05-04 21:44 36.07712 -115.12123 2048 ft 7 kts 161°
2026-05-04 21:45 36.07667 -115.12122 2047 ft 7 kts 195°
2026-05-04 21:45 36.07641 -115.12161 2049 ft 7 kts 277°
2026-05-04 21:45 36.07642 -115.12237 2049 ft 21 kts 268°
2026-05-04 21:45 36.07642 -115.12697 2066 ft 86 kts 270°
2026-05-04 21:46 36.07644 -115.13683 2092 ft 142 kts 270°
2026-05-04 21:46 36.07650 -115.15028 2503 ft 159 kts 263°
2026-05-04 21:46 36.07651 -115.16423 3223 ft 167 kts 265°
2026-05-04 21:46 36.07648 -115.17936 3577 ft 186 kts 266°
2026-05-04 21:47 36.07645 -115.19637 3764 ft 206 kts 266°
2026-05-04 21:47 36.07563 -115.21479 3908 ft 224 kts 258°
2026-05-04 21:47 36.07268 -115.23413 4328 ft 232 kts 256°
2026-05-04 21:47 36.06661 -115.25210 5029 ft 228 kts 229°
2026-05-04 21:48 36.05455 -115.26524 5491 ft 242 kts 211°
2026-05-04 21:48 36.03853 -115.27340 5946 ft 254 kts 201°
2026-05-04 21:48 36.02175 -115.28083 6599 ft 256 kts 201°
2026-05-04 21:48 36.00509 -115.28830 7403 ft 254 kts 201°
2026-05-04 21:49 35.98838 -115.29603 8068 ft 259 kts 204°
2026-05-04 21:49 35.97214 -115.30624 8808 ft 262 kts 208°
2026-05-04 21:49 35.95625 -115.31704 9653 ft 261 kts 207°
2026-05-04 21:49 35.94012 -115.32786 10316 ft 266 kts 207°
2026-05-04 21:50 35.92375 -115.33869 11064 ft 266 kts 208°
2026-05-04 21:50 35.90751 -115.34950 11867 ft 268 kts 212°
2026-05-04 21:50 35.89399 -115.36564 12448 ft 276 kts 237°
2026-05-04 21:50 35.88641 -115.38743 13294 ft 282 kts 254°
2026-05-04 21:51 35.88513 -115.41185 14035 ft 289 kts 266°
2026-05-04 21:51 35.88573 -115.43677 14760 ft 292 kts 268°
2026-05-04 21:51 35.88647 -115.46183 15525 ft 293 kts 268°
2026-05-04 21:51 35.88714 -115.48701 16286 ft 294 kts 267°
2026-05-04 21:52 35.88771 -115.51246 16966 ft 298 kts 267°
2026-05-04 21:52 35.88823 -115.53795 17837 ft 297 kts 266°
2026-05-04 21:52 35.88873 -115.56343 18568 ft 299 kts 266°
2026-05-04 21:52 35.88920 -115.58979 18765 ft 318 kts 266°
2026-05-04 21:53 35.88967 -115.61747 18910 ft 337 kts 267°
2026-05-04 21:53 35.89020 -115.64707 19117 ft 352 kts 267°
2026-05-04 21:53 35.89079 -115.67759 19613 ft 358 kts 267°
2026-05-04 21:53 35.89138 -115.70825 20299 ft 357 kts 267°
2026-05-04 21:54 35.89197 -115.73886 20974 ft 358 kts 267°
2026-05-04 21:54 35.89254 -115.76997 21590 ft 359 kts 267°
2026-05-04 21:54 35.89308 -115.80044 22172 ft 361 kts 267°
2026-05-04 21:54 35.89363 -115.83145 22753 ft 363 kts 267°
2026-05-04 21:55 35.89416 -115.86259 23312 ft 364 kts 267°
2026-05-04 21:55 35.89471 -115.89398 23790 ft 366 kts 268°
2026-05-04 21:55 35.89938 -115.92517 24257 ft 378 kts 284°
2026-05-04 21:55 35.91085 -115.95476 24774 ft 389 kts 294°
2026-05-04 21:56 35.92825 -115.98120 25185 ft 405 kts 304°
2026-05-04 21:56 35.94816 -116.00605 25610 ft 410 kts 306°
2026-05-04 21:56 35.96870 -116.03079 25970 ft 413 kts 306°
2026-05-04 21:56 35.98941 -116.05562 26363 ft 417 kts 306°
2026-05-04 21:57 36.01018 -116.08069 26822 ft 417 kts 304°
2026-05-04 21:57 36.03090 -116.10587 27256 ft 419 kts 304°
2026-05-04 21:57 36.05164 -116.13136 27599 ft 422 kts 304°
2026-05-04 21:57 36.07246 -116.15710 27961 ft 425 kts 303°
2026-05-04 21:58 36.09339 -116.18303 28347 ft 427 kts 303°
2026-05-04 21:58 36.11436 -116.20905 28723 ft 428 kts 303°
2026-05-04 21:58 36.13546 -116.23525 29080 ft 431 kts 303°
2026-05-04 21:58 36.15669 -116.26164 29412 ft 434 kts 303°
2026-05-04 21:59 36.17805 -116.28820 29759 ft 436 kts 303°
2026-05-04 21:59 36.19941 -116.31474 30158 ft 435 kts 302°
2026-05-04 21:59 36.22072 -116.34121 30601 ft 433 kts 302°
2026-05-04 21:59 36.24191 -116.36759 30977 ft 432 kts 302°
2026-05-04 22:00 36.26308 -116.39400 31280 ft 432 kts 301°
2026-05-04 22:00 36.28424 -116.42042 31600 ft 433 kts 302°
2026-05-04 22:00 36.30579 -116.44656 31987 ft 433 kts 303°
2026-05-04 22:00 36.32760 -116.47236 32348 ft 433 kts 303°
2026-05-04 22:01 36.34944 -116.49807 32640 ft 433 kts 303°
2026-05-04 22:01 36.37095 -116.52353 32918 ft 433 kts 303°
2026-05-04 22:01 36.39272 -116.54935 33216 ft 433 kts 302°
2026-05-04 22:01 36.41442 -116.57518 33600 ft 432 kts 303°
2026-05-04 22:02 36.43609 -116.60105 33761 ft 434 kts 303°
2026-05-04 22:02 36.45811 -116.62710 33878 ft 439 kts 304°
2026-05-04 22:02 36.48061 -116.65269 34251 ft 436 kts 306°
2026-05-04 22:02 36.50302 -116.67779 34636 ft 433 kts 307°
2026-05-04 22:03 36.52542 -116.70304 34777 ft 436 kts 306°
2026-05-04 22:03 36.54793 -116.72863 34914 ft 440 kts 306°
2026-05-04 22:03 36.57048 -116.75430 35202 ft 439 kts 306°
2026-05-04 22:03 36.59291 -116.77985 35550 ft 436 kts 306°
2026-05-04 22:04 36.61531 -116.80540 35750 ft 437 kts 306°
2026-05-04 22:04 36.66054 -116.85716 35747 ft 444 kts 308°
2026-05-04 22:05 36.70588 -116.90898 35744 ft 441 kts 308°
2026-05-04 22:05 36.75357 -116.95787 35723 ft 456 kts 322°
2026-05-04 22:06 36.81030 -116.99431 35738 ft 460 kts 324°
2026-05-04 22:06 36.86752 -117.02963 35729 ft 458 kts 325°
2026-05-04 22:07 36.92413 -117.06566 35746 ft 455 kts 324°
2026-05-04 22:07 36.98021 -117.10209 35754 ft 454 kts 324°
2026-05-04 22:08 37.03633 -117.13873 35745 ft 455 kts 324°
2026-05-04 22:08 37.09262 -117.17550 35769 ft 458 kts 324°
2026-05-04 22:09 37.14903 -117.21237 35753 ft 462 kts 324°
2026-05-04 22:09 37.20656 -117.25001 35756 ft 465 kts 324°
2026-05-04 22:10 37.26372 -117.28748 35750 ft 468 kts 324°
2026-05-04 22:10 37.31920 -117.32901 35734 ft 456 kts 311°
2026-05-04 22:11 37.36653 -117.38153 35737 ft 454 kts 309°
2026-05-04 22:11 37.41394 -117.43412 35741 ft 455 kts 310°
2026-05-04 22:12 37.46217 -117.48586 35746 ft 454 kts 310°
2026-05-04 22:12 37.48271 -117.51482 35722 ft 433 kts 292°
2026-05-04 22:12 37.49515 -117.54835 35735 ft 416 kts 278°
2026-05-04 22:12 37.50055 -117.58341 35751 ft 404 kts 269°
2026-05-04 22:13 37.50352 -117.61851 35742 ft 403 kts 268°
2026-05-04 22:13 37.50865 -117.68874 35745 ft 403 kts 268°
2026-05-04 22:14 37.51390 -117.75907 35734 ft 403 kts 268°
2026-05-04 22:14 37.51942 -117.82934 35739 ft 403 kts 269°
2026-05-04 22:15 37.52504 -117.89966 35754 ft 403 kts 269°
2026-05-04 22:15 37.53066 -117.96990 35744 ft 403 kts 269°
2026-05-04 22:16 37.53621 -118.03965 35751 ft 402 kts 268°
2026-05-04 22:16 37.54173 -118.10974 35757 ft 401 kts 268°
2026-05-04 22:17 37.54719 -118.17972 35811 ft 402 kts 268°
2026-05-04 22:17 37.55262 -118.24964 35835 ft 401 kts 268°
2026-05-04 22:18 37.55709 -118.30782 35863 ft 402 kts 268°
2026-05-04 22:18 37.56246 -118.37815 35854 ft 404 kts 268°
2026-05-04 22:19 37.56781 -118.44872 35845 ft 405 kts 268°
2026-05-04 22:19 37.57313 -118.51943 35836 ft 405 kts 268°
2026-05-04 22:20 37.57841 -118.59004 35929 ft 405 kts 268°
2026-05-04 22:20 37.58365 -118.66086 35944 ft 406 kts 268°
2026-05-04 22:21 37.58885 -118.73179 35990 ft 407 kts 268°
2026-05-04 22:21 37.59403 -118.80289 35981 ft 407 kts 269°
2026-05-04 22:22 37.59917 -118.87404 35980 ft 407 kts 269°
2026-05-04 22:22 37.60426 -118.94511 35984 ft 407 kts 269°
2026-05-04 22:23 37.60928 -119.01584 35985 ft 407 kts 269°
2026-05-04 22:23 37.61429 -119.08724 35949 ft 410 kts 269°
2026-05-04 22:24 37.61929 -119.15911 35971 ft 413 kts 269°
2026-05-04 22:24 37.62429 -119.23152 35959 ft 416 kts 269°
2026-05-04 22:25 37.62929 -119.30449 35987 ft 419 kts 269°
2026-05-04 22:25 37.63428 -119.37783 35999 ft 420 kts 269°
2026-05-04 22:26 37.63923 -119.45115 35951 ft 417 kts 269°
2026-05-04 22:26 37.64167 -119.48745 35691 ft 413 kts 269°
2026-05-04 22:26 37.64407 -119.52334 35457 ft 408 kts 269°
2026-05-04 22:26 37.64643 -119.55878 35237 ft 405 kts 270°
2026-05-04 22:27 37.64875 -119.59433 35004 ft 408 kts 271°
2026-05-04 22:27 37.65108 -119.63007 34795 ft 410 kts 271°
2026-05-04 22:27 37.65340 -119.66593 34568 ft 411 kts 271°
2026-05-04 22:27 37.65572 -119.70159 34249 ft 406 kts 271°
2026-05-04 22:28 37.65802 -119.73700 33881 ft 403 kts 271°
2026-05-04 22:28 37.66028 -119.77203 33481 ft 399 kts 271°
2026-05-04 22:28 37.66248 -119.80633 33134 ft 395 kts 271°
2026-05-04 22:28 37.66468 -119.84079 32788 ft 392 kts 272°
2026-05-04 22:29 37.66685 -119.87501 32419 ft 390 kts 272°
2026-05-04 22:29 37.66899 -119.90904 32059 ft 388 kts 272°
2026-05-04 22:29 37.67111 -119.94285 31729 ft 385 kts 273°
2026-05-04 22:29 37.67321 -119.97639 31388 ft 383 kts 273°
2026-05-04 22:30 37.67529 -120.00980 31055 ft 380 kts 273°
2026-05-04 22:30 37.67735 -120.04303 30721 ft 380 kts 274°
2026-05-04 22:30 37.67942 -120.07655 30428 ft 387 kts 274°
2026-05-04 22:30 37.68153 -120.11112 30112 ft 403 kts 274°
2026-05-04 22:31 37.68371 -120.14673 29688 ft 408 kts 275°
2026-05-04 22:31 37.68588 -120.18235 29249 ft 406 kts 276°
2026-05-04 22:31 37.68802 -120.21769 28926 ft 402 kts 276°
2026-05-04 22:31 37.69014 -120.25276 28557 ft 399 kts 276°
2026-05-04 22:32 37.69222 -120.28748 28197 ft 396 kts 276°
2026-05-04 22:32 37.69429 -120.32202 27837 ft 393 kts 276°
2026-05-04 22:32 37.69632 -120.35631 27484 ft 391 kts 276°
2026-05-04 22:32 37.69834 -120.39042 27125 ft 389 kts 275°
2026-05-04 22:33 37.69844 -120.42452 26681 ft 391 kts 265°
2026-05-04 22:33 37.69470 -120.45872 26209 ft 395 kts 261°
2026-05-04 22:33 37.69011 -120.49299 25721 ft 398 kts 261°
2026-05-04 22:33 37.68547 -120.52748 25232 ft 399 kts 261°
2026-05-04 22:34 37.68101 -120.56216 24743 ft 401 kts 262°
2026-05-04 22:34 37.67674 -120.59698 24246 ft 403 kts 262°
2026-05-04 22:34 37.67257 -120.63203 23731 ft 405 kts 262°
2026-05-04 22:34 37.66849 -120.66674 23161 ft 406 kts 262°
2026-05-04 22:35 37.66435 -120.70201 22615 ft 406 kts 262°
2026-05-04 22:35 37.66013 -120.73771 22076 ft 406 kts 262°
2026-05-04 22:35 37.65595 -120.77285 21622 ft 404 kts 262°
2026-05-04 22:35 37.65174 -120.80786 21147 ft 403 kts 262°
2026-05-04 22:36 37.64759 -120.84229 20642 ft 402 kts 262°
2026-05-04 22:36 37.64338 -120.87710 20164 ft 401 kts 262°
2026-05-04 22:36 37.63919 -120.91181 19694 ft 399 kts 262°
2026-05-04 22:36 37.63501 -120.94632 19247 ft 397 kts 261°
2026-05-04 22:37 37.63075 -120.98056 18789 ft 395 kts 261°
2026-05-04 22:37 37.62624 -121.01471 18335 ft 393 kts 261°
2026-05-04 22:37 37.62167 -121.04854 17822 ft 390 kts 261°
2026-05-04 22:37 37.61712 -121.08217 17335 ft 387 kts 261°
2026-05-04 22:38 37.61262 -121.11550 16872 ft 384 kts 261°
2026-05-04 22:38 37.60817 -121.14855 16409 ft 380 kts 261°
2026-05-04 22:38 37.60377 -121.18128 15975 ft 377 kts 261°
2026-05-04 22:38 37.59941 -121.21368 15544 ft 373 kts 261°
2026-05-04 22:39 37.59507 -121.24580 15123 ft 370 kts 261°
2026-05-04 22:39 37.59084 -121.27771 14695 ft 367 kts 262°
2026-05-04 22:39 37.58708 -121.30944 14275 ft 364 kts 262°
2026-05-04 22:39 37.58353 -121.34093 13858 ft 362 kts 263°
2026-05-04 22:40 37.58002 -121.37226 13393 ft 360 kts 262°
2026-05-04 22:40 37.57651 -121.40332 12941 ft 356 kts 262°
2026-05-04 22:40 37.57304 -121.43365 12510 ft 344 kts 262°
2026-05-04 22:40 37.56966 -121.46293 12126 ft 332 kts 262°
2026-05-04 22:41 37.56638 -121.49130 11746 ft 323 kts 262°
2026-05-04 22:41 37.56317 -121.51893 11371 ft 315 kts 262°
2026-05-04 22:41 37.56002 -121.54604 11016 ft 310 kts 261°
2026-05-04 22:41 37.55690 -121.57276 10654 ft 306 kts 261°
2026-05-04 22:42 37.55381 -121.59908 10292 ft 301 kts 261°
2026-05-04 22:42 37.55073 -121.62501 9953 ft 297 kts 259°
2026-05-04 22:42 37.54589 -121.64991 9644 ft 288 kts 252°
2026-05-04 22:42 37.53993 -121.67363 9354 ft 280 kts 251°
2026-05-04 22:43 37.53402 -121.69669 9074 ft 273 kts 251°
2026-05-04 22:43 37.52841 -121.71923 8805 ft 267 kts 251°
2026-05-04 22:43 37.52299 -121.74150 8565 ft 265 kts 251°
2026-05-04 22:43 37.51763 -121.76372 8312 ft 265 kts 252°
2026-05-04 22:44 37.51231 -121.78588 8072 ft 264 kts 252°
2026-05-04 22:44 37.50707 -121.80775 7786 ft 258 kts 251°
2026-05-04 22:44 37.50194 -121.82914 7523 ft 252 kts 251°
2026-05-04 22:44 37.49693 -121.85003 7281 ft 247 kts 250°
2026-05-04 22:45 37.49204 -121.87058 7019 ft 244 kts 253°
2026-05-04 22:45 37.49264 -121.91265 6520 ft 239 kts 273°
2026-05-04 22:45 37.49402 -121.93332 6262 ft 235 kts 272°
2026-05-04 22:46 37.49526 -121.95343 6005 ft 231 kts 272°
2026-05-04 22:46 37.49649 -121.97363 5749 ft 233 kts 271°
2026-05-04 22:46 37.49768 -121.99418 5499 ft 237 kts 272°
2026-05-04 22:46 37.49887 -122.01485 5210 ft 236 kts 272°
2026-05-04 22:47 37.50006 -122.03533 4953 ft 233 kts 272°
2026-05-04 22:47 37.50121 -122.05552 4691 ft 229 kts 272°
2026-05-04 22:47 37.50234 -122.07534 4425 ft 225 kts 273°
2026-05-04 22:47 37.50394 -122.09476 4164 ft 222 kts 284°
2026-05-04 22:48 37.51107 -122.11166 3920 ft 217 kts 303°
2026-05-04 22:48 37.51859 -122.12813 3701 ft 216 kts 296°
2026-05-04 22:48 37.52533 -122.14491 3590 ft 214 kts 296°
2026-05-04 22:48 37.53213 -122.16158 3478 ft 214 kts 296°
2026-05-04 22:49 37.53894 -122.17802 3215 ft 207 kts 297°
2026-05-04 22:49 37.54547 -122.19371 2904 ft 198 kts 296°
2026-05-04 22:49 37.55171 -122.20870 2667 ft 189 kts 296°
2026-05-04 22:49 37.55769 -122.22309 2440 ft 183 kts 296°
2026-05-04 22:50 37.56355 -122.23715 2168 ft 180 kts 296°
2026-05-04 22:50 37.56932 -122.25099 1934 ft 179 kts 296°
2026-05-04 22:50 37.57508 -122.26482 1707 ft 177 kts 296°
2026-05-04 22:50 37.58074 -122.27841 1450 ft 173 kts 296°
2026-05-04 22:51 37.58623 -122.29158 1248 ft 168 kts 296°
2026-05-04 22:51 37.59166 -122.30459 1022 ft 162 kts 296°
2026-05-04 22:51 37.59666 -122.31656 772 ft 148 kts 296°
2026-05-04 22:51 37.60126 -122.32760 598 ft 141 kts 295°
2026-05-04 22:52 37.60578 -122.33845 372 ft 142 kts 296°
2026-05-04 22:52 37.61036 -122.34943 184 ft 141 kts 296°
2026-05-04 22:52 37.61498 -122.36058 34 ft 145 kts 297°
2026-05-04 22:52 37.61921 -122.37074 22 ft 108 kts 297°
2026-05-04 22:53 37.62172 -122.37677 23 ft 47 kts 297°
2026-05-04 22:53 37.62311 -122.38009 21 ft 35 kts 298°
2026-05-04 22:53 37.62367 -122.38196 23 ft 15 kts 238°
2026-05-04 22:53 37.62314 -122.38240 21 ft 6 kts 207°
2026-05-04 22:54 37.62305 -122.38246 22 ft 0 kts 208°
2026-05-04 22:54 37.62303 -122.38247 22 ft 1 kts 208°
2026-05-04 22:54 37.62300 -122.38249 21 ft 1 kts 208°
2026-05-04 22:54 37.62297 -122.38251 21 ft 0 kts 208°
2026-05-04 22:55 37.62294 -122.38253 23 ft 0 kts 208°
2026-05-04 22:55 37.62292 -122.38255 22 ft 0 kts 208°
2026-05-04 22:55 37.62290 -122.38256 22 ft 0 kts 208°
2026-05-04 22:57 37.62271 -122.38269 21 ft 7 kts 208°
2026-05-04 22:57 37.62205 -122.38313 22 ft 13 kts 207°
2026-05-04 22:58 37.62125 -122.38366 21 ft 13 kts 209°
2026-05-04 22:58 37.62067 -122.38440 22 ft 9 kts 255°
2026-05-04 22:58 37.62053 -122.38471 22 ft 3 kts 218°
2026-05-04 22:58 37.62032 -122.38471 21 ft 3 kts 164°
2026-05-04 22:59 37.62019 -122.38466 23 ft 3 kts 164°
2026-05-04 22:59 37.61997 -122.38459 21 ft 3 kts 164°
2026-05-04 22:59 37.61986 -122.38455 21 ft 0 kts 164°